Regional Weather Roundup
Issued by NWS

Home | Current Version | Previous Version | Graphics & Text | Print | Product List | Glossary On
Versions: 1 2 3 4 5 6 7 8 9 10 11 12 13 14 15 16 17 18 19 20 21 22 23 24 25 26 27 28 29 30 31 32 33 34 35 36 37 38 39 40 41 42 43 44 45 46 47 48 49 50
000
ASUS43 KMKX 040221
RWRWI

WISCONSIN REGIONAL WEATHER ROUNDUP
NATIONAL WEATHER SERVICE MILWAUKEE/SULLIVAN WI
900 PM CDT SUN MAY 03 2015

NOTE: "FAIR" INDICATES FEW OR NO CLOUDS BELOW 12,000 FEET WITH NO
SIGNIFICANT WEATHER AND/OR OBSTRUCTIONS TO VISIBILITY.

WIZ001-002-006>008-014>016-023>028-040300-
NORTHWEST WISCONSIN

CITY           SKY/WX    TMP DP  RH WIND       PRES   REMARKS
SUPERIOR ARPT  PTCLDY    50  46  87 S5        29.85R
ASHLAND        CLOUDY    56  50  80 S6        29.85F
HAYWARD        CLOUDY    58  48  69 CALM      29.86S
SIREN          MOCLDY    56  44  63 CALM      29.88R
CUMBERLAND     CLOUDY    59  41  51 N5        29.90R
RICE LAKE      CLOUDY    60  49  67 CALM      29.89R
CHETEK         CLOUDY    57  56  94 N5        29.88R
LADYSMITH      LGT RAIN  58  52  80 NE7       29.88F
EAU CLAIRE     LGT RAIN  59  54  83 E12       29.87R
MENOMONIE      LGT RAIN  59  57  94 E12G17    29.85F
NEW RICHMOND   CLOUDY    59  48  67 N8        29.89R
OSCEOLA        CLOUDY    62  44  51 E5        29.91R
$$

WIZ003>005-009-010-017-018-040300-
NORTH CENTRAL WISCONSIN

CITY           SKY/WX    TMP DP  RH WIND       PRES   REMARKS
MANITOWISH WTR LGT RAIN  59  42  53 NW5       29.90R
ARBOR VITAE    LGT RAIN  60  44  56 NW5       29.93R
WOODRUFF       LGT RAIN  60  44  56 NW5       29.93R
RHINELANDER    CLOUDY    60  54  80 NW7       29.91R
EAGLE RIVER    CLOUDY    60  51  71 NW7       29.89R
LAND O LAKES   CLOUDY    61  44  54 N7        29.89R
PHILLIPS       RAIN      57  51  78 N5        29.90R
TOMAHAWK       RAIN      58  55  90 N3        29.91R
MEDFORD        RAIN      60  54  80 N18G24    29.88R
MERRILL        TSTM      59  57  91 N10       29.89R
$$

WIZ029-030-035-036-043>047-040300-
CENTRAL WISCONSIN

CITY           SKY/WX    TMP DP  RH WIND       PRES   REMARKS
WAUSAU         CLOUDY    66  53  63 N10G24    29.84R THUNDER
MOSINEE        PTCLDY    70  54  56 SW6       29.83
MARSHFIELD     TSTM      60  55  83 NW35G44   29.89R
STEVENS POINT  CLOUDY    68  52  55 S9        29.84R
WAUPACA        MOCLDY    69  55  59 S8        29.83R
WAUTOMA        MOCLDY    68  56  65 S8        29.86R
WISC RAPIDS    CLOUDY    71  53  52 S8        29.84R
CAMP DOUGLAS   CLOUDY    70  58  64 S6        29.83R
$$

WIZ011>013-019>022-031-037>040-048>050-040300-
NORTHEAST WISCONSIN

CITY           SKY/WX    TMP DP  RH WIND       PRES   REMARKS
ANTIGO         RAIN      58  55  88 N16G23    29.89R
SHAWANO        MOCLDY    72  53  51 S7        29.81R
OCONTO         CLEAR     71  54  55 SW13G18   29.81R
STURGEON BAY   CLEAR     66  52  59 SW15G22   29.85R
GREEN BAY      CLEAR     69  53  56 S12       29.84R
MANITOWOC      CLEAR     68  54  60 S8        29.86R
APPLETON       PTCLDY    66  52  59 S13       29.86R
CLINTONVILLE   MOCLDY    70  52  52 S9        29.82R
OSHKOSH        CLEAR     65  53  65 S8        29.84R
$$

WIZ032>034-041-042-053>061-040300-
SOUTHWEST WISCONSIN

CITY           SKY/WX    TMP DP  RH WIND       PRES   REMARKS
LA CROSSE      TSTM      61  55  81 CALM      29.89R
SPARTA         CLOUDY    72  56  55 S5        29.85R
VIROQUA        CLOUDY    68  56  65 S6        29.86R
BOSCOBEL       MOCLDY    71  58  63 VRB5      29.84R
PRAIRIE DU CHI PTCLDY    70  58  64 SE9       29.81R
PLATTEVILLE    CLEAR     64  60  85 SE9       29.86R
$$

WIZ056-057-062-063-064-067-068-040300-
SOUTH CENTRAL WISCONSIN

CITY           SKY/WX    TMP DP  RH WIND       PRES   REMARKS
REEDSBURG      MOCLDY    66  57  71 S7        29.86R
BARABOO/DELLS  NOT AVBL
LONE ROCK      MOCLDY    67  57  70 S8        29.85R
MINERAL POINT  PTCLDY    64  59  82 SE9       29.87R
MADISON        MOCLDY    66  55  67 S10       29.86R
MIDDLETON      FAIR      66  54  65 S6        29.87R
WATERTOWN      CLEAR     64  55  74 S7        29.87R
MONROE         PTCLDY    61  55  82 SE8       29.88R
JANESVILLE     CLEAR     64  54  68 S9        29.85F
$$

WIZ051-052-058>065-066-070>072-040300-
SOUTHEAST WISCONSIN

CITY           SKY/WX    TMP DP  RH WIND       PRES   REMARKS
MILWAUKEE      PTCLDY    66  53  63 S12G22    29.87F
WAUKESHA       CLEAR     63  54  72 SW12      29.89S
MILWAUKEE/TIMM CLEAR     66  52  59 S13G20    29.87F
RACINE         PTCLDY    65  54  67 S12       29.90F
BURLINGTON     CLEAR     60  55  84 S5        29.89R
KENOSHA        PTCLDY    64  57  78 S13       29.89F
FOND DU LAC    CLEAR     66  53  63 S9        29.85R
SHEBOYGAN      CLEAR     64  52  64 S9        29.86R
WEST BEND      CLEAR     63  50  63 S8        29.87R
JUNEAU         CLEAR     64  54  68 S13G18    29.88R
$$

LSZ147-162-040300-
LAKE SUPERIOR

STATION/POSITION TIME  TEMP    WIND        PRES    WAVE
                       AIR SEA DIR/SP/G            HT/PER
                 (UTC) (F)     (DEG/KT/KT) (MB)    (FT/S)
W MID LAKE BUOY  0150   45 35  300/  6/  8 1010.7R   1/ 3
DEVILS ISLAND    0200   52     260/ 11/ 12 1011.1R
PORT WING        0140   55     180/  2/  2 1011.2R
SAXON HARBOR     0200   54      CALM  /  5 1010.2F
$$

LMZ867-665-643>646-040300-
LAKE MICHIGAN

STATION/POSITION TIME  TEMP    WIND        PRES    WAVE
                       AIR SEA DIR/SP/G            HT/PER
                 (UTC) (F)     (DEG/KT/KT) (MB)    (FT/S)
CHAMBERS ISLAND  0100   67     170/  6/ 12 1008.1S
NORTHPORT PIER   0100   51     150/  7/ 12 1008.5F
KEWAUNEE LAKESHO 0100   50     190/ 12/ 14 1008.8F
SHEBOYGAN LAKESH 0200   58     190/ 16/ 17 1011.4R
PORT WASHINGTON  0140   51     180/  8/ 11 1011.9F
ATWATER BUOY     0200   55     160/ 10/ 12 1012.7F
MILWAUKEE LAKESH 0200   65     200/ 15/ 19   N/A
KENOSHA   LAKESH 0200   57     170/ 17/ 20 1011.9F
$$

TC  - TEMPERATURE IN CELSIUS
VSB - VISIBILITY IN STATUTE MILES
WCI - WIND CHILL INDEX
HX  - HEAT INDEX




USA.gov is the U.S. government's official web portal to all federal, state and local government web resources and services.